Weather in Voronezh

Russia / Voronezh Oblast     51˚39′38″N   39˚12′00″E
temp.,
°C
wind,
m/s
gust,
m/s
humid.,
%
clouds,
%
prec.,
mm/h
press.,
hPa
HPBL,
m
30 november, mon
mon3000:00+4˚se51173100 0.0 1030781
03:00+3˚se51073100 0.0 1030644
06:00+2˚se51075100 0.0 1030663
09:00+2˚se51173100 0.0 1030638
12:00+2˚se51170100 0.0 1031700
15:00+2˚se51071100 0.0 1030732
18:00+3˚se51171100 0.0 1030904
21:00+1˚se61269100 0.0 1031846
1 december, tue
tue100:00se61373100 0.0 1031811
03:00se51174100 0.0 1031755
06:00−1˚se5107499 0.0 1031654
09:00−1˚se5106799 0.0 1032620
12:00−1˚se4860100 0.0 1032614
15:00se4758100 0.0 1032631
18:00−1˚se4963100 0.0 1033566
21:00−1˚se4863100 0.0 1034532
2 december, wed
wed200:00−2˚se4864100 0.0 1034488
03:00−3˚ese376595 0.0 1035445
06:00−4˚ese376783 0.0 1035425
09:00−4˚ese476884 0.0 1035410
12:00−3˚ese4763100 0.0 1035449
15:00−3˚ese476098 0.0 1034488
18:00−4˚ese486086 0.0 1034440
21:00−4˚ese495990 0.0 1035443
3 december, thu
thu300:00−5˚ese486099 0.0 1035428
03:00−5˚ese4860100 0.0 1035414
06:00−6˚ese486078 0.0 1035404
09:00−6˚ese496068 0.0 1035399
12:00−5˚se495287 0.0 1035465
15:00−3˚se494993 0.0 1034528
18:00−4˚se4950100 0.0 1034531
21:00−4˚se4953100 0.0 1034534
4 december, fri
fri400:00−5˚se485492 0.0 1035526
03:00−5˚se485492 0.0 1035503
06:00−5˚se485496 0.0 1034482
09:00−6˚se485490 0.0 1035442
12:00−4˚se475282 0.0 1035461
15:00−3˚se474882 0.0 1034501
18:00−4˚se494986 0.0 1035450
21:00−5˚se485093 0.0 1035424